This is the latest recevied weather packets stored in our database for station/object SP6RGZ-1. If no packets are shown the sender has not sent any weather packets the latest 10 day(s).
| Time | Temp. | Humidity | Pressure | Rain* | Wind** | Luminosity | Snow |
|---|---|---|---|---|---|---|---|
| 1777956302 | 22.22° C | 54% | 990.1 hPa | - | - | - | - |
| 1777955402 | 20.56° C | 60% | 990.2 hPa | - | - | - | - |
| 1777954503 | 18.89° C | 65% | 990.3 hPa | - | - | - | - |
| 1777943702 | 16.67° C | 70% | 991.3 hPa | - | - | - | - |
| 1777934703 | 17.78° C | 67% | 992 hPa | - | - | - | - |
| 1777929307 | 19.44° C | 60% | 992.2 hPa | - | - | - | - |
| 1777907703 | 29.44° C | 34% | 991.7 hPa | - | - | - | - |
| 1777900502 | 28.33° C | 34% | 992.5 hPa | - | - | - | - |
| 1777897802 | 28.33° C | 34% | 992.9 hPa | - | - | - | - |
| 1777896902 | 28.33° C | 34% | 993 hPa | - | - | - | - |
| 1777894202 | 28.33° C | 34% | 993.4 hPa | - | - | - | - |
| 1777893302 | 28.33° C | 34% | 993.5 hPa | - | - | - | - |
| 1777889702 | 27.78° C | 35% | 994.1 hPa | - | - | - | - |
| 1777887002 | 27.78° C | 35% | 994.5 hPa | - | - | - | - |
| 1777886102 | 28.33° C | 34% | 994.6 hPa | - | - | - | - |
| 1777885202 | 28.33° C | 34% | 994.6 hPa | - | - | - | - |
| 1777883402 | 27.22° C | 35% | 994.7 hPa | - | - | - | - |
| 1777882503 | 26.67° C | 36% | 994.7 hPa | - | - | - | - |
| 1777881603 | 26.67° C | 36% | 994.5 hPa | - | - | - | - |
| 1777880702 | 25.56° C | 38% | 994.6 hPa | - | - | - | - |
| 1777879802 | 24.44° C | 40% | 994.6 hPa | - | - | - | - |
| 1777878902 | 23.33° C | 41% | 994.6 hPa | - | - | - | - |
| 1777878002 | 21.67° C | 45% | 994.5 hPa | - | - | - | - |
| 1777877102 | 20.56° C | 46% | 994.5 hPa | - | - | - | - |
| 1777876202 | 20° C | 49% | 994.6 hPa | - | - | - | - |
* Rain since midnight (hover to see other rain measurements)
** Current wind speed in m/s (hover to see current wind gust speed)